When you browse on this site, cookies collect data to enhance your experience and personalize the content and advertising you see.
Visit our Privacy Policy to learn more. By continuing to use the site, you agree to this use of cookies and data.
  • In Lithuania
  • List of Countries
  • For 7 days
  • Water Temperature
  • Weather Map
  • Weather Widgets
  • user-avatar
    Login

    Hourly Weather Djibouti

    Today, 15 November, Friday

    Time Temperature Precipitation Wind Pressure Humidity
    00:00 +29°C° 0 mm 4 mps 758 mmHg 74%
    01:00 +28°C° 0 mm 4 mps 758 mmHg 74%
    02:00 +28°C° 0 mm 4 mps 758 mmHg 75%
    03:00 +28°C° 0 mm 4 mps 757 mmHg 76%
    04:00 +28°C° 0 mm 4 mps 758 mmHg 76%
    05:00 +28°C° 0 mm 4 mps 758 mmHg 77%
    06:00 +28°C° 0 mm 4 mps 759 mmHg 78%
    07:00 +29°C° 0 mm 5 mps 759 mmHg 70%
    08:00 +30°C° 0 mm 5 mps 759 mmHg 63%
    09:00 +33°C° 0 mm 5 mps 760 mmHg 55%
    10:00 +33°C° 0 mm 6 mps 759 mmHg 52%
    11:00 +34°C° 0 mm 6 mps 759 mmHg 49%
    12:00 +35°C° 0 mm 6 mps 758 mmHg 46%
    13:00 +35°C° 0 mm 6 mps 757 mmHg 47%
    14:00 +35°C° 0 mm 6 mps 756 mmHg 47%
    15:00 +34°C° 0 mm 6 mps 755 mmHg 49%
    16:00 +33°C° 0 mm 5 mps 756 mmHg 54%
    17:00 +32°C° 0 mm 5 mps 756 mmHg 60%
    18:00 +30°C° 0 mm 4 mps 757 mmHg 66%
    19:00 +30°C° 0 mm 4 mps 757 mmHg 68%
    20:00 +29°C° 0 mm 4 mps 758 mmHg 70%
    21:00 +29°C° 0 mm 4 mps 758 mmHg 72%
    22:00 +29°C° 0 mm 4 mps 758 mmHg 73%
    23:00 +29°C° 0 mm 4 mps 758 mmHg 75%

    Tomorrow, 16 November, Saturday

    Time Temperature Precipitation Wind Pressure Humidity
    00:00 +28°C° 0 mm 5 mps 758 mmHg 77%
    01:00 +28°C° 0.1 mm 5 mps 758 mmHg 78%
    02:00 +28°C° 0.1 mm 5 mps 757 mmHg 80%
    03:00 +28°C° 0.1 mm 5 mps 757 mmHg 81%
    04:00 +28°C° 0.1 mm 5 mps 757 mmHg 81%
    05:00 +28°C° 0.1 mm 5 mps 757 mmHg 81%
    06:00 +28°C° 0.1 mm 5 mps 758 mmHg 81%
    07:00 +29°C° 0.1 mm 6 mps 758 mmHg 75%
    08:00 +30°C° 0.1 mm 6 mps 758 mmHg 68%
    09:00 +32°C° 0.1 mm 7 mps 758 mmHg 62%
    10:00 +32°C° 0 mm 7 mps 758 mmHg 58%
    11:00 +33°C° 0 mm 7 mps 757 mmHg 54%
    12:00 +34°C° 0 mm 7 mps 757 mmHg 50%
    13:00 +34°C° 0 mm 7 mps 756 mmHg 50%
    14:00 +34°C° 0 mm 7 mps 755 mmHg 51%
    15:00 +34°C° 0 mm 7 mps 755 mmHg 51%
    16:00 +33°C° 0 mm 7 mps 755 mmHg 57%
    17:00 +30°C° 0 mm 6 mps 756 mmHg 63%
    18:00 +29°C° 0 mm 6 mps 756 mmHg 69%
    19:00 +29°C° 0 mm 6 mps 756 mmHg 70%
    20:00 +29°C° 0 mm 6 mps 757 mmHg 72%
    21:00 +29°C° 0 mm 6 mps 757 mmHg 73%
    22:00 +29°C° 0.1 mm 6 mps 757 mmHg 74%
    23:00 +29°C° 0.1 mm 6 mps 757 mmHg 75%

    Day after tomorrow, 17 November, Sunday

    Time Temperature Precipitation Wind Pressure Humidity
    00:00 +28°C° 0.1 mm 6 mps 757 mmHg 76%
    01:00 +28°C° 0.2 mm 7 mps 757 mmHg 77%
    02:00 +28°C° 0.2 mm 7 mps 756 mmHg 78%
    03:00 +28°C° 0.2 mm 7 mps 756 mmHg 79%
    04:00 +28°C° 0.2 mm 7 mps 756 mmHg 78%
    05:00 +28°C° 0.2 mm 7 mps 757 mmHg 77%
    06:00 +28°C° 0.2 mm 7 mps 757 mmHg 77%
    07:00 +29°C° 0.1 mm 7 mps 758 mmHg 72%
    08:00 +31°C° 0.1 mm 8 mps 758 mmHg 67%
    09:00 +32°C° 0.1 mm 8 mps 758 mmHg 62%
    10:00 +32°C° 0.1 mm 8 mps 758 mmHg 60%
    11:00 +32°C° 0.1 mm 8 mps 757 mmHg 58%
    12:00 +33°C° 0.1 mm 8 mps 757 mmHg 57%
    13:00 +33°C° 0 mm 8 mps 756 mmHg 57%
    14:00 +33°C° 0 mm 8 mps 756 mmHg 58%
    15:00 +32°C° 0 mm 7 mps 755 mmHg 59%
    16:00 +32°C° 0 mm 7 mps 755 mmHg 63%
    17:00 +30°C° 0 mm 7 mps 756 mmHg 67%
    18:00 +29°C° 0 mm 6 mps 756 mmHg 71%
    19:00 +29°C° 0.1 mm 6 mps 757 mmHg 73%
    20:00 +29°C° 0.1 mm 6 mps 757 mmHg 74%
    21:00 +29°C° 0.1 mm 7 mps 758 mmHg 76%
    22:00 +29°C° 0.2 mm 7 mps 758 mmHg 77%
    23:00 +28°C° 0.2 mm 7 mps 758 mmHg 79%

    18 November, Monday

    Time Temperature Precipitation Wind Pressure Humidity
    00:00 +28°C° 0.2 mm 7 mps 758 mmHg 80%
    01:00 +28°C° 0.2 mm 8 mps 757 mmHg 80%
    02:00 +28°C° 0.2 mm 8 mps 757 mmHg 80%
    03:00 +28°C° 0.2 mm 8 mps 757 mmHg 80%
    04:00 +28°C° 0.2 mm 8 mps 757 mmHg 79%
    05:00 +28°C° 0.2 mm 8 mps 758 mmHg 79%
    06:00 +28°C° 0.2 mm 8 mps 758 mmHg 78%
    07:00 +29°C° 0.2 mm 8 mps 758 mmHg 76%
    08:00 +29°C° 0.2 mm 8 mps 759 mmHg 73%
    09:00 +31°C° 0.2 mm 8 mps 759 mmHg 71%
    10:00 +31°C° 0.1 mm 8 mps 758 mmHg 71%
    11:00 +30°C° 0.1 mm 7 mps 758 mmHg 71%
    12:00 +30°C° 0.1 mm 7 mps 757 mmHg 71%
    13:00 +30°C° 0.2 mm 7 mps 757 mmHg 71%
    14:00 +30°C° 0.2 mm 7 mps 756 mmHg 70%
    15:00 +30°C° 0.2 mm 7 mps 756 mmHg 69%
    16:00 +30°C° 0.1 mm 6 mps 756 mmHg 73%
    17:00 +29°C° 0.1 mm 6 mps 756 mmHg 76%
    18:00 +29°C° 0.1 mm 6 mps 757 mmHg 79%
    19:00 +29°C° 0.1 mm 6 mps 757 mmHg 80%
    20:00 +29°C° 0.1 mm 5 mps 757 mmHg 81%
    21:00 +29°C° 0.1 mm 5 mps 758 mmHg 82%
    22:00 +29°C° 0.1 mm 5 mps 758 mmHg 83%
    23:00 +29°C° 0.1 mm 5 mps 758 mmHg 84%

    19 November, Tuesday

    Time Temperature Precipitation Wind Pressure Humidity
    00:00 +28°C° 0.1 mm 5 mps 757 mmHg 84%
    01:00 +28°C° 0.2 mm 5 mps 757 mmHg 85%
    02:00 +28°C° 0.2 mm 6 mps 757 mmHg 85%
    03:00 +28°C° 0.2 mm 6 mps 757 mmHg 85%
    04:00 +28°C° 0.2 mm 6 mps 757 mmHg 85%
    05:00 +28°C° 0.2 mm 6 mps 757 mmHg 84%
    06:00 +28°C° 0.2 mm 6 mps 757 mmHg 84%
    07:00 +29°C° 0.1 mm 6 mps 758 mmHg 78%
    08:00 +30°C° 0.1 mm 6 mps 758 mmHg 73%
    09:00 +32°C° 0.1 mm 6 mps 759 mmHg 67%
    10:00 +32°C° 0 mm 6 mps 758 mmHg 66%
    11:00 +33°C° 0 mm 6 mps 757 mmHg 64%
    12:00 +33°C° 0 mm 5 mps 756 mmHg 62%
    13:00 +33°C° 0 mm 5 mps 756 mmHg 62%
    14:00 +33°C° 0 mm 5 mps 755 mmHg 61%
    15:00 +33°C° 0 mm 5 mps 755 mmHg 61%
    16:00 +33°C° 0 mm 5 mps 755 mmHg 66%
    17:00 +32°C° 0 mm 5 mps 755 mmHg 72%
    18:00 +30°C° 0 mm 5 mps 755 mmHg 77%
    19:00 +30°C° 0.1 mm 5 mps 756 mmHg 79%
    20:00 +30°C° 0.1 mm 5 mps 756 mmHg 81%
    21:00 +29°C° 0.1 mm 5 mps 756 mmHg 82%
    22:00 +29°C° 0.2 mm 5 mps 756 mmHg 83%
    23:00 +29°C° 0.2 mm 5 mps 756 mmHg 84%

    20 November, Wednesday

    Time Temperature Precipitation Wind Pressure Humidity
    00:00 +29°C° 0.2 mm 5 mps 756 mmHg 85%
    01:00 +29°C° 0.3 mm 5 mps 756 mmHg 85%
    02:00 +29°C° 0.3 mm 5 mps 755 mmHg 85%
    03:00 +29°C° 0.3 mm 6 mps 755 mmHg 85%
    04:00 +29°C° 0.2 mm 5 mps 755 mmHg 85%
    05:00 +29°C° 0.2 mm 5 mps 756 mmHg 85%
    06:00 +29°C° 0.2 mm 5 mps 756 mmHg 85%
    07:00 +29°C° 0.4 mm 5 mps 756 mmHg 80%
    08:00 +30°C° 0.4 mm 5 mps 757 mmHg 76%
    09:00 +32°C° 0.4 mm 6 mps 757 mmHg 71%
    10:00 +32°C° 0.3 mm 5 mps 757 mmHg 69%
    11:00 +32°C° 0.3 mm 5 mps 756 mmHg 68%
    12:00 +33°C° 0.3 mm 5 mps 755 mmHg 66%
    13:00 +33°C° 0 mm 5 mps 755 mmHg 66%
    14:00 +33°C° 0 mm 5 mps 754 mmHg 66%
    15:00 +33°C° 0 mm 5 mps 754 mmHg 66%
    16:00 +32°C° 0 mm 5 mps 754 mmHg 69%
    17:00 +32°C° 0 mm 5 mps 754 mmHg 73%
    18:00 +30°C° 0 mm 5 mps 754 mmHg 76%
    19:00 +30°C° 0 mm 5 mps 755 mmHg 77%
    20:00 +30°C° 0 mm 5 mps 755 mmHg 78%
    21:00 +29°C° 0 mm 5 mps 756 mmHg 79%
    22:00 +29°C° 0.1 mm 5 mps 756 mmHg 81%
    23:00 +29°C° 0.1 mm 5 mps 756 mmHg 83%
    Show more